This is the latest recevied weather packets stored in our database for station/object KC9Q. If no packets are shown the sender has not sent any weather packets the latest 10 day(s).
| Time | Temp. | Humidity | Pressure | Rain* | Wind** | Luminosity | Snow |
|---|---|---|---|---|---|---|---|
| 1777459800 | 15° C | 95% | 1011.3 hPa | 0 mm | - | 0 W/m² | - |
| 1777459496 | 15° C | 96% | 1011.4 hPa | 0 mm | - | 0 W/m² | - |
| 1777459195 | 15.56° C | 96% | 1011.5 hPa | 0 mm | - | 0 W/m² | - |
| 1777458892 | 15.56° C | 95% | 1011.6 hPa | 0 mm | - | 0 W/m² | - |
| 1777458588 | 15.56° C | 95% | 1011.7 hPa | 0 mm | - | 0 W/m² | - |
| 1777458284 | 15.56° C | 95% | 1011.6 hPa | 0 mm | - | 0 W/m² | - |
| 1777457980 | 15.56° C | 96% | 1011.5 hPa | 0 mm | - | 0 W/m² | - |
| 1777457677 | 15.56° C | 96% | 1011.4 hPa | 0 mm | - | 0 W/m² | - |
| 1777457376 | 15.56° C | 96% | 1011.4 hPa | 0 mm | - | 0 W/m² | - |
| 1777457072 | 15.56° C | 96% | 1011.2 hPa | 1.27 mm | - | 0 W/m² | - |
| 1777456768 | 15.56° C | 96% | 1011.4 hPa | 3.05 mm | - | 0 W/m² | - |
| 1777456468 | 15.56° C | 97% | 1011.2 hPa | 1.27 mm | - | 0 W/m² | - |
| 1777456164 | 15.56° C | 97% | 1011.3 hPa | 3.05 mm | - | 0 W/m² | - |
| 1777455860 | 15.56° C | 97% | 1011.3 hPa | 3.05 mm | - | 0 W/m² | - |
| 1777455557 | 16.11° C | 97% | 1011.3 hPa | 0.51 mm | - | 0 W/m² | - |
| 1777455254 | 16.11° C | 98% | 1011.1 hPa | 1.78 mm | - | 0 W/m² | - |
| 1777454950 | 16.11° C | 98% | 1010.9 hPa | 2.29 mm | - | 0 W/m² | - |
| 1777454647 | 16.11° C | 98% | 1011 hPa | 1.27 mm | - | 0 W/m² | - |
| 1777454343 | 16.11° C | 98% | 1010.6 hPa | 0 mm | - | 0 W/m² | - |
| 1777454040 | 16.11° C | 99% | 1010.7 hPa | 0 mm | - | 0 W/m² | - |
| 1777453737 | 16.11° C | 99% | 1010.6 hPa | 0 mm | - | 0 W/m² | - |
| 1777453434 | 16.67° C | 99% | 1010.6 hPa | 0 mm | - | 0 W/m² | - |
| 1777453130 | 16.67° C | 99% | 1010.5 hPa | 0 mm | - | 0 W/m² | - |
| 1777452828 | 16.67° C | 99% | 1010.3 hPa | 0 mm | - | 0 W/m² | - |
| 1777452524 | 16.67° C | 99% | 1010.3 hPa | 0 mm | - | 0 W/m² | - |
* Rain latest hour (hover to see other rain measurements)
** Current wind speed in m/s (hover to see current wind gust speed)